Location: Baumgartsau
(48.4586°N, 14.0864°E)
Time: 02:08:31
(UTC+00:00)

APEX - Pass Details

Date: 09 April 2020
Orbit: 332 x 1113 km, 69.9° (Epoch: 03 June)

Event Time Altitude Azimuth Distance (km) Brightness Sun altitude
Rises 18:29:52 0° 329° (NNW) 3,825 8.5 -7.7°
Reaches altitude 10° 18:32:41 10° 328° (NNW) 2,787 7.8 -8.1°
Maximum altitude 18:39:13 78° 244° (WSW) 897 4.4 -9.1°
Drops below altitude 10° 18:44:29 10° 159° (SSE) 2,261 6.0 -9.9°
Enters shadow 18:45:42 - 158° (SSE) 2,726 6.4 -10.1°
